Location: Unnamed
(53.2784°N, 6.2666°W)
Time: 12:27:56
(UTC+00:00)

Envisat - Visible Passes

Search period start: 06 December 2021 00:00
Search period end: 16 December 2021 00:00
Orbit: 764 x 766 km, 98.2° (Epoch: 05 December)

Date Brightness Start Highest point End Pass type
(mag) Time Alt. Az. Time Alt. Az. Time Alt. Az.
06 Dec 5.4 04:18:47 10° NE 04:22:29 20° E 04:26:09 10° SE visible
06 Dec 2.9 05:56:59 10° NNE 06:02:05 75° WNW 06:07:09 10° SSW visible
06 Dec 4.4 07:37:14 10° NNW 07:40:20 16° NW 07:43:24 10° W visible
06 Dec 5.0 17:18:34 10° SSW 17:23:05 32° W 17:27:38 10° NNW visible
07 Dec 3.5 05:20:08 10° NNE 05:25:10 58° E 05:30:11 10° S visible
07 Dec 3.8 06:59:39 10° N 07:03:54 28° WNW 07:08:08 10° WSW visible
07 Dec 3.7 16:40:59 10° S 16:46:00 60° W 16:51:03 10° NNW visible
07 Dec 6.4 18:25:24 10° W 18:26:07 10° W 18:26:49 10° WNW visible
08 Dec 4.7 04:43:34 10° NNE 04:48:04 31° E 04:52:32 10° SSE visible
08 Dec 3.1 06:22:24 10° N 06:27:19 49° WNW 06:32:10 10° SW visible
08 Dec 5.7 17:44:55 10° SW 17:48:40 20° W 17:52:26 10° NW visible
09 Dec 5.7 04:07:37 10° NE 04:10:46 16° E 04:13:54 10° SE visible
09 Dec 2.9 05:45:24 10° NNE 05:50:32 90° WNW 05:55:37 10° SSW visible
09 Dec 4.3 07:25:24 10° N 07:28:55 19° NW 07:32:26 10° W visible
09 Dec 4.6 17:06:43 10° SSW 17:11:26 38° W 17:16:11 10° NNW visible
10 Dec 3.9 05:08:37 10° NNE 05:13:34 48° E 05:18:27 10° S visible
10 Dec 3.6 06:47:56 10° N 06:52:26 32° WNW 06:56:55 10° WSW visible
10 Dec 6.1 18:12:04 10° WSW 18:14:21 13° W 18:16:38 10° WNW visible
11 Dec 5.0 04:32:12 10° NE 04:36:24 25° E 04:40:35 10° SSE visible
11 Dec 3.0 06:10:47 10° N 06:15:47 59° WNW 06:20:47 10° SSW visible
11 Dec 5.4 17:32:50 10° SW 17:36:58 25° W 17:41:08 10° NW visible
12 Dec 5.9 03:56:37 10° NE 03:59:02 13° E 04:01:26 10° ESE visible
12 Dec 3.1 05:33:50 10° NNE 05:38:57 75° ESE 05:44:02 10° S visible
12 Dec 4.1 07:13:37 10° N 07:17:30 22° NW 07:21:22 10° WSW visible
12 Dec 4.2 16:54:55 10° S 16:59:48 46° W 17:04:43 10° NNW visible
13 Dec 4.3 04:57:09 10° NNE 05:01:56 39° E 05:06:41 10° SSE visible
13 Dec 3.4 06:36:16 10° N 06:40:58 38° WNW 06:45:39 10° SW visible
13 Dec 5.9 17:59:33 10° WSW 18:02:37 16° W 18:05:41 10° NW visible
14 Dec 5.3 04:20:53 10° NE 04:24:42 21° E 04:28:31 10° SE visible
14 Dec 2.9 05:59:10 10° NNE 06:04:16 71° WNW 06:09:19 10° SSW visible
14 Dec 4.5 07:39:30 10° NNW 07:42:28 16° NW 07:45:24 10° W visible
14 Dec 5.1 17:20:52 10° SSW 17:25:18 30° W 17:29:46 10° NNW visible
15 Dec 6.1 03:46:12 10° ENE 03:47:17 11° E 03:48:21 10° E visible
15 Dec 3.4 05:22:18 10° NNE 05:27:22 62° ESE 05:32:24 10° S visible
15 Dec 3.9 07:01:53 10° N 07:06:04 26° WNW 07:10:13 10° WSW visible
15 Dec 3.8 16:43:12 10° S 16:48:11 57° W 16:53:13 10° NNW visible
